Main page
METAR-TAF:

METAR-TAF

Airports :

Oil platform

Troll A, Norway

latitude: 60-38-42N, longitude: 3-43-29E, elevation: 20 m

Current weather observation

The report was made 39 minutes ago, at 09:20 UTC
Wind 20 kt from the East/Northeast, varying between North and East
Temperature 6°C
Humidity 87%
Pressure 995 hPa
Visibility 10 km or more

METAR: ENQA 090920Z AUTO 07020KT 010V100 9999NDV OVC014/// 06/04 Q0995 W06/S4

Time: 11:59 (09:59 UTC)


TAF: missing

Weather observations and forecasts of more than 4000 airports (METAR and TAF reports).

The available stations are represented by yellow and red dots on the map.

Hover mouse over dot to see the name of the station.

Then click to see weather observations and forecasts.

To change the map : click on the green buttons with a black cross to zoom in, on the green button with a dash to zoom out, or on the green arrows for adjacent maps.


METAR-TAF: